When you browse on this site, cookies collect data to enhance your experience and personalize the content and advertising you see.
Visit our Privacy Policy to learn more. By continuing to use the site, you agree to this use of cookies and data.
  • In Hungary
  • List of Countries
  • For 7 days
  • Water Temperature
  • Satellite Maps
  • Weather Map
  • News
  • Weather Widgets
  • user-avatar
    Login

    Hourly Weather Sherpur

    Today, 15 December, Saturday

    Time Temperature Precipitation Wind Pressure Humidity
    00:00 +2°C° 0 mm 1 mps 610 mmHg 26%
    01:00 +2°C° 0 mm 1 mps 610 mmHg 25%
    02:00 +2°C° 0 mm 1 mps 609 mmHg 24%
    03:00 +2°C° 0 mm 1 mps 609 mmHg 24%
    04:00 +1°C° 0 mm 1 mps 609 mmHg 23%
    05:00 +1°C° 0 mm 1 mps 608 mmHg 23%
    06:00 +1°C° 0 mm 1 mps 609 mmHg 22%
    07:00 +1°C° 0 mm 1 mps 609 mmHg 21%
    08:00 +2°C° 0 mm 1 mps 609 mmHg 20%
    09:00 +4°C° 0 mm 1 mps 610 mmHg 18%
    10:00 +6°C° 0 mm 1 mps 611 mmHg 16%
    11:00 +8°C° 0 mm 0 mps 612 mmHg 13%
    12:00 +10°C° 0 mm 1 mps 612 mmHg 13%
    13:00 +10°C° 0 mm 1 mps 611 mmHg 13%
    14:00 +11°C° 0 mm 1 mps 611 mmHg 12%
    15:00 +9°C° 0 mm 1 mps 611 mmHg 15%
    16:00 +7°C° 0 mm 0 mps 610 mmHg 17%
    17:00 +5°C° 0 mm 0 mps 609 mmHg 20%
    18:00 +4°C° 0 mm 0 mps 610 mmHg 20%
    19:00 +5°C° 0 mm 1 mps 610 mmHg 20%
    20:00 +4°C° 0 mm 1 mps 610 mmHg 20%
    21:00 +4°C° 0 mm 1 mps 610 mmHg 21%
    22:00 +4°C° 0 mm 1 mps 610 mmHg 21%
    23:00 +3°C° 0 mm 1 mps 610 mmHg 21%

    Tomorrow, 16 December, Sunday

    Time Temperature Precipitation Wind Pressure Humidity
    00:00 +3°C° 0 mm 1 mps 610 mmHg 21%
    01:00 +3°C° 0 mm 1 mps 610 mmHg 21%
    02:00 +2°C° 0 mm 1 mps 610 mmHg 21%
    03:00 +2°C° 0 mm 1 mps 610 mmHg 21%
    04:00 +2°C° 0 mm 1 mps 610 mmHg 21%
    05:00 +1°C° 0 mm 2 mps 610 mmHg 21%
    06:00 +1°C° 0 mm 2 mps 610 mmHg 20%
    07:00 +1°C° 0 mm 2 mps 610 mmHg 20%
    08:00 +1°C° 0 mm 2 mps 611 mmHg 20%
    09:00 +5°C° 0 mm 1 mps 612 mmHg 18%
    10:00 +7°C° 0 mm 1 mps 613 mmHg 15%
    11:00 +9°C° 0 mm 1 mps 614 mmHg 13%
    12:00 +10°C° 0 mm 1 mps 613 mmHg 13%
    13:00 +11°C° 0 mm 1 mps 613 mmHg 12%
    14:00 +11°C° 0 mm 1 mps 613 mmHg 12%
    15:00 +10°C° 0 mm 1 mps 612 mmHg 14%
    16:00 +7°C° 0 mm 0 mps 611 mmHg 17%
    17:00 +6°C° 0 mm 0 mps 611 mmHg 19%
    18:00 +5°C° 0 mm 0 mps 611 mmHg 20%
    19:00 +4°C° 0 mm 0 mps 611 mmHg 20%
    20:00 +4°C° 0 mm 1 mps 611 mmHg 20%
    21:00 +4°C° 0 mm 1 mps 610 mmHg 21%
    22:00 +4°C° 0 mm 1 mps 610 mmHg 21%
    23:00 +3°C° 0 mm 1 mps 610 mmHg 21%

    Day after tomorrow, 17 December, Monday

    Time Temperature Precipitation Wind Pressure Humidity
    00:00 +3°C° 0 mm 1 mps 610 mmHg 21%
    01:00 +3°C° 0 mm 1 mps 610 mmHg 21%
    02:00 +2°C° 0 mm 1 mps 610 mmHg 22%
    03:00 +2°C° 0 mm 1 mps 609 mmHg 22%
    04:00 +2°C° 0 mm 1 mps 609 mmHg 22%
    05:00 +2°C° 0 mm 1 mps 609 mmHg 22%
    06:00 +1°C° 0 mm 2 mps 609 mmHg 21%
    07:00 +1°C° 0 mm 2 mps 610 mmHg 21%
    08:00 +1°C° 0 mm 2 mps 610 mmHg 20%
    09:00 +5°C° 0 mm 1 mps 611 mmHg 18%
    10:00 +7°C° 0 mm 1 mps 612 mmHg 16%
    11:00 +10°C° 0 mm 1 mps 613 mmHg 14%
    12:00 +10°C° 0 mm 1 mps 612 mmHg 13%
    13:00 +11°C° 0 mm 1 mps 612 mmHg 13%
    14:00 +11°C° 0 mm 1 mps 612 mmHg 13%
    15:00 +10°C° 0 mm 1 mps 611 mmHg 15%
    16:00 +9°C° 0 mm 1 mps 611 mmHg 17%
    17:00 +7°C° 0 mm 1 mps 610 mmHg 20%
    18:00 +6°C° 0 mm 1 mps 610 mmHg 20%
    19:00 +6°C° 0 mm 1 mps 610 mmHg 21%
    20:00 +5°C° 0 mm 1 mps 610 mmHg 22%
    21:00 +5°C° 0 mm 1 mps 610 mmHg 22%
    22:00 +4°C° 0 mm 1 mps 610 mmHg 22%
    23:00 +4°C° 0 mm 1 mps 610 mmHg 23%

    18 December, Tuesday

    Time Temperature Precipitation Wind Pressure Humidity
    00:00 +4°C° 0 mm 1 mps 610 mmHg 23%
    01:00 +2°C° 0 mm 2 mps 610 mmHg 23%
    02:00 +2°C° 0 mm 2 mps 609 mmHg 23%
    03:00 +2°C° 0 mm 2 mps 609 mmHg 23%
    04:00 +2°C° 0 mm 2 mps 609 mmHg 23%
    05:00 +2°C° 0 mm 2 mps 609 mmHg 23%
    06:00 +2°C° 0 mm 2 mps 609 mmHg 22%
    07:00 +2°C° 0 mm 2 mps 609 mmHg 21%
    08:00 +2°C° 0 mm 2 mps 610 mmHg 21%
    09:00 +5°C° 0 mm 2 mps 610 mmHg 18%
    10:00 +8°C° 0 mm 1 mps 611 mmHg 16%
    11:00 +11°C° 0 mm 1 mps 612 mmHg 14%
    12:00 +11°C° 0 mm 1 mps 612 mmHg 13%
    13:00 +12°C° 0 mm 1 mps 611 mmHg 13%
    14:00 +13°C° 0 mm 1 mps 611 mmHg 12%
    15:00 +11°C° 0 mm 1 mps 610 mmHg 15%
    16:00 +10°C° 0 mm 1 mps 609 mmHg 17%
    17:00 +9°C° 0 mm 1 mps 608 mmHg 19%
    18:00 +8°C° 0 mm 1 mps 608 mmHg 19%
    19:00 +7°C° 0 mm 1 mps 608 mmHg 20%
    20:00 +6°C° 0 mm 1 mps 608 mmHg 20%
    21:00 +6°C° 0 mm 1 mps 608 mmHg 20%
    22:00 +6°C° 0 mm 1 mps 608 mmHg 21%
    23:00 +6°C° 0 mm 1 mps 607 mmHg 21%

    19 December, Wednesday

    Time Temperature Precipitation Wind Pressure Humidity
    00:00 +5°C° 0 mm 1 mps 607 mmHg 21%
    01:00 +5°C° 0 mm 1 mps 606 mmHg 21%
    02:00 +4°C° 0 mm 1 mps 606 mmHg 22%
    03:00 +4°C° 0 mm 1 mps 606 mmHg 22%
    04:00 +3°C° 0 mm 1 mps 605 mmHg 22%
    05:00 +3°C° 0 mm 1 mps 605 mmHg 22%
    06:00 +3°C° 0 mm 1 mps 605 mmHg 22%
    07:00 +3°C° 0 mm 1 mps 606 mmHg 21%
    08:00 +3°C° 0 mm 1 mps 606 mmHg 21%
    09:00 +5°C° 0 mm 1 mps 607 mmHg 18%
    10:00 +7°C° 0 mm 1 mps 608 mmHg 16%
    11:00 +10°C° 0 mm 1 mps 609 mmHg 13%
    12:00 +10°C° 0 mm 1 mps 609 mmHg 13%
    13:00 +10°C° 0 mm 1 mps 609 mmHg 12%
    14:00 +11°C° 0 mm 1 mps 608 mmHg 12%
    15:00 +10°C° 0 mm 1 mps 608 mmHg 13%
    16:00 +9°C° 0 mm 1 mps 608 mmHg 15%
    17:00 +7°C° 0 mm 2 mps 608 mmHg 17%
    18:00 +6°C° 0 mm 2 mps 608 mmHg 18%
    19:00 +5°C° 0 mm 2 mps 608 mmHg 19%
    20:00 +4°C° 0 mm 2 mps 609 mmHg 20%
    21:00 +3°C° 0 mm 2 mps 609 mmHg 21%
    22:00 +3°C° 0 mm 2 mps 609 mmHg 22%
    23:00 +2°C° 0 mm 2 mps 609 mmHg 23%

    20 December, Thursday

    Time Temperature Precipitation Wind Pressure Humidity
    00:00 +2°C° 0 mm 2 mps 608 mmHg 24%
    01:00 +2°C° 0 mm 2 mps 608 mmHg 24%
    02:00 +1°C° 0 mm 2 mps 608 mmHg 25%
    03:00 +1°C° 0 mm 2 mps 608 mmHg 26%
    04:00 +1°C° 0 mm 2 mps 608 mmHg 27%
    05:00 +1°C° 0 mm 2 mps 608 mmHg 27%
    06:00 +1°C° 0 mm 2 mps 609 mmHg 28%
    07:00 +1°C° 0 mm 2 mps 609 mmHg 28%
    08:00 +1°C° 0 mm 2 mps 610 mmHg 29%
    09:00 +3°C° 0 mm 2 mps 610 mmHg 26%
    10:00 +5°C° 0 mm 2 mps 611 mmHg 23%
    11:00 +8°C° 0 mm 1 mps 612 mmHg 21%
    12:00 +9°C° 0 mm 1 mps 611 mmHg 20%
    13:00 +9°C° 0 mm 1 mps 611 mmHg 20%
    14:00 +10°C° 0 mm 1 mps 610 mmHg 19%
    15:00 +9°C° 0 mm 1 mps 610 mmHg 21%
    16:00 +8°C° 0 mm 1 mps 610 mmHg 23%
    17:00 +7°C° 0 mm 1 mps 609 mmHg 25%
    18:00 +5°C° 0 mm 2 mps 609 mmHg 25%
    19:00 +4°C° 0 mm 2 mps 609 mmHg 26%
    20:00 +3°C° 0 mm 2 mps 610 mmHg 27%
    21:00 +3°C° 0 mm 2 mps 609 mmHg 27%
    22:00 +3°C° 0 mm 2 mps 609 mmHg 27%
    23:00 +2°C° 0 mm 2 mps 609 mmHg 28%
    Show more